Regional Weather Roundup
Issued by NWS

Home | Current Version | Previous Version | Graphics & Text | Print | Product List | Glossary On
Versions: 1 2 3 4 5 6 7 8 9 10 11 12 13 14 15 16 17 18 19 20 21 22 23 24 25 26 27 28 29 30 31 32 33 34 35 36 37 38 39 40 41 42 43 44 45 46 47 48 49
000
ASUS45 KBOU 010307
RWRCO

WEATHER ROUNDUP FOR COLORADO
NATIONAL WEATHER SERVICE DENVER/BOULDER CO
900 PM MDT TUE SEP 30 2014

NOTE: "FAIR" INDICATES FEW OR NO CLOUDS BELOW 12000 FEET WITH NO
SIGNIFICANT WEATHER AND/OR OBSTRUCTIONS TO VISIBILITY.

COZ001>005-013-030-031-010400-
...NORTHWEST COLORADO...

CITY           SKY/WX    TMP DP  RH WIND       PRES   REMARKS
CRAIG          CLOUDY    47  42  83 SW5       29.99S
HAYDEN         MOCLDY    45  39  81 S7        29.99F
MEEKER         PTCLDY    46  42  86 CALM      30.00S
MOUNT WERNER   NOT AVBL
STEAMBOAT SPGS CLOUDY    42  40  94 E5        30.02R
WALDEN         CLOUDY    37  34  87 SE5       30.02S
$$

COZ006>008-011-010400-
...WEST CENTRAL VALLEYS...

CITY           SKY/WX    TMP DP  RH WIND       PRES   REMARKS
GRAND JUNCTION CLEAR     51  46  83 E5        29.93R
MONTROSE       CLEAR     49  44  83 SE6       30.00R
EAGLE          CLOUDY    45  43  93 SE5       30.06R
RIFLE          PTCLDY    49  40  71 S9        29.98R
DELTA          CLEAR     54  48  82 N3        29.97R
NUCLA          CLEAR     50  43  76 E6        30.02R
$$

COZ017>023-064>068-010400-
...SOUTHWEST COLORADO...

CITY           SKY/WX    TMP DP  RH WIND       PRES   REMARKS
DURANGO        CLEAR     52  36  54 W3        30.03R
CORTEZ         CLEAR     47  42  83 NE7       29.99S
PAGOSA SPRINGS CLEAR     44  39  83 NE3       30.08R
TELLURIDE      PTCLDY   N/A N/A N/A CALM      30.13R
WOLF CREEK PAS CLOUDY    30  30 100 SW16      30.22S FOG     WCI  19
$$

COZ009-010-012-014-032>034-037-058>063-010400-
...CENTRAL COLORADO...

CITY           SKY/WX    TMP DP  RH WIND       PRES   REMARKS
ASPEN          MOCLDY    41  37  86 S5        30.06R
BUENA VISTA    MOCLDY    43  34  70 W5        30.04S
COPPER MTN     MOCLDY    34  28  80 SW5       30.18R WCI  30
BERTHOUD PASS  SNOW      27  23  86 NW22G33   30.16S VSB 1/2 WCI  12
COTTONWOOD PAS MOCLDY    41  32  70 N3        30.10R
GUNNISON       MOCLDY    43  36  75 CALM      30.08R
KREMMLING      CLOUDY    41  36  81 CALM      30.04S
LEADVILLE      MOCLDY    34  31  88 N9        30.10S WCI  27
SALIDA         MOCLDY    50  35  55 SW13G18   30.09S
SUNLIGHT       FOG       36  36 100 CALM      30.16R VSB 1/2
WILKERSON PASS NOT AVBL
$$

COZ069>075-010400-
...SAN LUIS VALLEY/SANGRE DE CRISTO MOUNTAINS...

CITY           SKY/WX    TMP DP  RH WIND       PRES   REMARKS
ALAMOSA        CLEAR     44  35  70 SW6       30.03R
LA VETA PASS   CLEAR     39  32  75 S9G20     30.11R
SAGUACHE       PTCLDY    43  34  70 NW7       30.06R
$$

COZ035-036-038>040-010400-
...NORTHERN COLORADO FRONT RANGE...

CITY           SKY/WX    TMP DP  RH WIND       PRES   REMARKS
DENVER INTL AP CLOUDY    59  36  42 W5        29.88S
DMNS CITY PARK   N/A     58  38  47 N2        29.89R
AURORA         MOCLDY    58  33  39 NW3       29.90S
FRONT RANGE AP NOT AVBL
ERIE MUNI ARPT CLOUDY    59  35  40 W10       29.88S
BOULDER MUN AP CLOUDY    57  36  44 S5        29.88F
CENTENNIAL     CLOUDY    57  33  40 CALM      29.90S
BROOMFIELD     MOCLDY    59  32  36 W12       29.91R
FORT COLLINS   CLOUDY    57  39  51 SW3       29.88R
LONGMONT       CLOUDY    58  40  52 S6        29.89S
$$

COZ041-046-047-076>085-087-088-010400-
...PIKES PEAK/PALMER DIVIDE AND SOUTHERN FOOTHILLS...

CITY           SKY/WX    TMP DP  RH WIND       PRES   REMARKS
COLO. SPRINGS  MOCLDY    58  32  37 N8        29.92R
A. F. ACADEMY  MOCLDY    58  27  31 NW14      29.94R
ELLICOTT       NOT AVBL
FALCON         CLOUDY    51  38  59 NE3       29.96R
FORT CARSON    MOCLDY    55  33  44 VRB1      29.89R
LIMON          CLOUDY    56  46  69 NW10      29.88R
MONUMENT HILL  CLOUDY    48  36  61 NW5       29.95S
TRINIDAD       PTCLDY    62  32  32 CALM      29.89R
$$

COZ042>045-048>051-090-091-010400-
...NORTHEAST COLORADO...

CITY           SKY/WX    TMP DP  RH WIND       PRES   REMARKS
GREELEY ARPT   CLOUDY    57  41  54 CALM      29.87R
AKRON          CLOUDY    56  43  61 SW5       29.83R
BURLINGTON     CLOUDY    56  44  64 SW8       29.81R
WRAY           MOCLDY    60  44  55 CALM      29.78S
STERLING       CLOUDY    64  46  52 NW6       29.80R
HOLYOKE        MOCLDY    59  50  72 SW5       29.79R
FORT MORGAN    CLOUDY    61  41  48 NW9       29.85R
$$

COZ086-089-092>099-010400-
...SOUTHEAST COLORADO...

CITY           SKY/WX    TMP DP  RH WIND       PRES   REMARKS
PUEBLO         PTCLDY    64  32  30 NW21      29.83R
LA JUNTA       MOCLDY    64  38  38 S9        29.80R
LAMAR          MOCLDY    57  48  72 CALM      29.76R
SPRINGFIELD      N/A     55  42  61 CALM      29.82R
$$



USA.gov is the U.S. government's official web portal to all federal, state and local government web resources and services.